Wind_Speed
44 47 47 41 35 34 36 40 42 42 43 45 47 49 49 51 51 48 44 41 42 51 55 52 53 52 49 44 38 35 34 32 30 29 29 28 28 28 28 29 30 32 32 31 32 32 31 32 33 32 32 32 32 31 31 30 32 33 34 35 36 37 38 36 35 35 34 34 34 34 35 35 35 35 34 34 35 35 36 37 36 35 34 34 34 34
46 49 45 37 35 37 40 41 42 43 44 45 47 48 48 49 49 46 45 43 44 52 56 53 54 53 50 47 42 39 37 32 30 30 29 29 30 28 27 28 30 32 32 31 32 31 31 31 32 33 32 33 33 33 32 32 32 33 33 34 35 36 36 36 36 36 36 36 36 36 36 36 36 35 35 36 37 37 38 38 37 36 35 35 34 35
49 50 42 36 38 41 43 42 42 44 46 47 48 49 50 48 47 46 45 43 45 51 54 54 56 54 50 48 44 41 38 34 32 31 28 28 31 29 28 29 29 31 32 32 32 32 32 32 33 34 33 34 35 34 34 34 34 34 33 34 34 35 36 36 37 37 37 37 37 36 36 35 35 35 36 38 38 38 39 38 37 36 36 36 36 36
52 50 41 38 42 44 44 43 44 46 47 48 48 50 52 48 47 49 47 45 46 50 52 54 56 54 50 47 45 41 38 34 32 31 28 28 30 29 29 30 29 31 33 33 34 34 35 35 35 35 35 36 36 36 36 36 36 36 35 36 36 36 36 37 37 37 37 37 37 36 36 35 36 37 38 39 39 39 39 38 37 37 37 37 38 38
52 48 42 43 45 45 45 45 44 45 47 48 48 49 50 48 49 51 51 50 50 50 51 53 55 53 47 45 42 38 37 36 35 34 32 30 31 32 32 32 32 33 35 35 34 35 37 37 37 38 37 38 38 38 39 39 38 38 38 38 37 37 37 38 38 38 37 37 37 37 37 36 37 39 40 40 40 40 39 38 37 37 38 39 39 40
52 46 43 46 47 45 46 46 43 42 46 49 49 47 47 49 51 52 52 53 53 52 51 52 55 52 46 43 40 36 37 38 36 35 33 30 32 34 33 32 32 34 35 35 35 36 38 39 40 40 41 41 40 41 41 41 40 39 40 39 38 38 38 38 38 38 38 38 39 38 38 38 39 40 41 41 41 40 39 38 38 38 39 40 40 41
52 44 43 45 46 46 47 47 43 41 47 51 49 46 46 49 51 51 53 53 54 54 54 54 56 54 49 43 40 39 40 39 37 34 31 28 29 33 34 33 33 34 34 36 36 36 37 38 40 41 43 44 44 44 44 43 42 41 41 41 40 39 38 39 39 40 40 40 41 41 41 40 40 41 41 42 41 40 39 38 38 39 40 40 41 42
48 43 43 43 45 48 49 47 42 42 49 51 48 48 48 49 50 51 52 53 54 54 55 57 57 57 53 45 42 43 43 41 37 32 28 27 26 30 33 32 32 33 35 36 36 38 39 40 42 44 46 47 47 47 47 46 45 43 42 42 42 41 40 40 41 42 42 42 42 43 43 42 41 42 42 42 41 40 39 39 39 40 40 40 41 43
47 46 46 45 47 49 48 45 44 45 48 50 49 50 51 50 50 51 52 54 54 53 55 56 54 55 54 49 47 47 45 41 36 31 27 25 25 28 30 31 32 34 37 39 40 41 42 44 46 48 49 50 49 48 48 48 47 45 45 45 44 43 43 43 43 43 43 44 44 45 45 44 43 43 43 42 40 39 39 39 39 39 39 40 42 44
47 47 47 48 49 47 45 45 46 47 49 50 51 51 52 52 52 52 53 53 54 53 54 54 52 53 52 50 50 48 45 43 39 36 32 27 26 28 28 28 30 34 37 40 42 42 43 45 47 50 51 51 51 50 50 49 48 47 47 46 45 45 45 45 45 45 46 46 47 47 47 46 45 43 43 42 40 39 39 38 38 39 40 41 42 44
46 47 49 49 47 46 46 47 47 48 50 49 50 50 51 52 52 53 54 54 55 53 50 49 50 52 52 49 50 49 48 48 47 45 42 36 30 31 30 27 28 31 35 39 41 40 42 45 47 49 51 53 53 52 52 51 50 49 48 47 47 47 47 47 47 48 48 49 49 49 48 47 45 43 42 41 40 39 38 37 37 39 40 42 43 44
47 48 49 47 47 48 48 49 49 49 49 48 49 50 50 52 53 55 55 55 56 53 48 48 49 51 53 50 51 54 53 52 53 53 52 47 40 38 39 35 30 30 33 37 40 41 42 45 48 49 51 53 54 53 52 52 51 50 49 49 49 49 49 49 49 49 49 49 48 48 47 46 44 42 40 39 38 37 36 37 38 40 42 43 44 45
45 47 47 47 48 48 48 50 50 49 47 46 48 49 50 52 54 57 57 56 57 55 52 52 52 54 58 56 56 57 54 53 55 54 54 54 51 47 47 45 37 31 31 34 38 41 43 46 50 52 53 56 56 55 54 54 53 52 51 51 51 50 50 50 49 48 47 47 47 47 47 45 42 40 39 37 36 36 36 38 39 41 42 44 45 46
47 47 47 49 48 47 48 48 49 47 45 45 48 48 49 51 54 56 55 56 58 56 55 55 57 62 64 62 60 58 56 57 57 56 55 56 55 53 52 52 47 37 31 32 36 39 41 45 50 53 55 57 59 58 56 56 56 55 54 54 53 52 50 49 48 47 47 47 48 48 46 44 42 40 38 37 36 37 38 39 40 41 42 44 46 48
51 52 51 51 51 50 50 49 48 49 50 52 53 52 53 53 54 54 54 56 59 59 58 60 64 67 67 65 65 64 62 62 60 58 56 55 56 56 55 55 56 49 37 32 34 37 40 45 49 54 56 58 61 60 58 57 57 57 57 56 54 53 50 48 48 48 49 50 49 48 47 45 44 42 40 39 39 40 40 41 41 42 43 45 46 48
56 56 54 55 57 55 55 54 54 55 58 59 58 59 60 56 53 54 55 57 60 61 64 67 70 70 68 67 66 65 65 65 64 61 58 56 56 58 58 57 59 60 50 39 34 35 38 44 48 53 56 57 59 59 56 55 56 56 57 56 55 53 52 49 50 50 51 52 50 49 48 47 47 45 44 43 43 43 43 43 44 44 45 46 47 49
60 59 56 58 59 58 57 57 56 58 61 62 62 62 60 55 54 57 60 60 61 65 68 69 72 72 70 70 70 66 65 65 65 63 61 61 59 59 62 61 60 62 59 51 43 39 39 41 45 49 53 55 55 56 55 54 55 56 56 57 56 55 54 53 53 53 53 53 51 51 50 50 50 49 49 48 47 46 47 47 47 46 46 47 49 50
61 63 63 63 62 61 60 60 60 61 63 65 65 62 60 60 62 64 66 66 66 70 72 70 72 72 71 74 76 71 66 66 67 67 66 66 65 63 64 65 64 64 62 58 52 47 43 40 43 46 49 53 54 53 54 54 55 56 56 56 57 56 55 55 55 55 55 54 53 53 52 52 52 52 52 51 51 51 51 50 49 49 49 49 50 50
65 65 68 69 69 68 67 67 67 68 69 69 67 64 64 67 68 68 70 71 70 73 76 75 75 75 74 75 76 72 70 70 70 70 70 68 67 66 65 65 67 68 67 61 54 50 46 41 43 45 46 50 54 52 51 52 54 55 56 56 56 56 55 55 55 56 56 56 56 55 54 54 55 55 55 55 55 55 54 53 53 52 51 50 50 51
67 65 67 70 71 72 72 73 74 72 71 70 68 66 66 67 69 70 71 72 72 74 76 77 78 78 75 73 72 71 72 73 71 69 70 69 68 68 67 66 68 69 70 67 57 51 48 42 42 46 45 46 50 49 48 50 51 53 56 56 56 56 55 55 56 57 58 58 57 57 57 57 57 57 58 58 58 58 58 57 56 54 52 51 52 53
67 68 70 71 72 74 74 73 71 68 67 66 65 65 66 67 68 70 71 72 73 75 78 79 81 78 71 67 69 70 72 72 71 69 70 70 70 71 70 69 69 69 69 68 60 52 51 46 43 46 46 43 44 46 48 50 52 53 54 55 56 57 56 56 57 58 59 59 59 59 59 60 60 60 60 61 61 61 61 60 59 55 53 54 55 57
70 70 70 69 68 68 65 61 60 60 63 65 66 66 66 65 66 69 72 72 73 76 78 79 82 80 70 64 66 69 72 72 70 69 70 71 73 73 72 68 66 64 62 61 57 51 48 47 44 44 44 43 44 46 47 50 52 53 53 52 53 54 55 56 58 59 60 61 61 61 62 63 63 64 65 65 65 64 63 63 61 58 56 57 58 58
72 69 67 66 66 65 63 61 62 63 64 66 67 66 64 64 65 68 71 71 70 74 75 76 80 80 73 66 65 67 70 71 71 72 73 74 75 73 68 62 58 57 53 49 48 46 42 41 43 43 43 45 49 49 48 51 53 54 55 55 55 55 55 57 59 61 62 62 63 63 64 65 66 68 69 70 69 68 66 66 65 63 62 61 61 59
74 71 70 70 71 71 69 66 65 66 67 69 69 67 65 64 64 66 67 67 69 73 72 74 79 78 71 65 63 63 66 69 72 73 73 74 73 68 63 59 55 51 47 43 42 42 39 41 44 45 46 48 51 51 51 52 55 57 60 62 62 60 59 59 60 62 63 64 64 65 66 67 68 70 72 72 72 69 68 68 68 68 67 65 63 61
77 75 75 74 73 74 73 69 67 66 68 69 68 66 64 61 61 62 63 64 69 71 70 73 79 78 72 65 60 60 62 64 66 68 70 72 71 67 63 60 55 49 47 45 44 44 45 48 50 51 49 49 50 50 49 49 51 54 60 64 65 64 62 60 61 62 63 64 64 66 67 69 70 71 71 71 70 69 69 71 71 70 69 66 64 62
80 80 81 79 77 76 75 73 69 65 65 65 64 63 62 61 62 62 62 66 69 70 69 73 77 75 69 62 57 54 52 51 53 57 62 65 66 66 65 61 55 51 50 50 52 54 55 56 58 58 57 56 55 54 54 55 54 52 54 59 62 63 63 63 62 62 63 64 65 67 69 71 72 71 69 67 67 68 69 70 70 69 67 65 64 63
79 82 83 84 85 84 83 81 76 71 71 69 66 64 62 62 61 61 66 71 71 72 78 78 76 75 70 60 53 50 48 47 47 48 52 57 60 63 63 59 55 56 59 62 64 66 66 66 66 65 62 58 56 57 60 64 63 59 57 58 59 61 63 65 65 66 66 68 69 70 71 73 74 71 68 66 66 66 67 67 67 66 64 64 64 65
80 83 85 86 88 88 87 88 86 84 85 83 80 78 75 74 73 75 81 81 78 86 93 85 78 82 78 67 62 59 56 56 57 55 56 60 62 62 61 60 65 72 76 76 76 75 73 70 68 65 61 57 58 62 65 69 70 69 67 65 64 63 64 66 67 68 69 70 71 71 73 75 75 72 70 69 68 66 65 64 64 63 63 64 65 66
85 86 86 88 90 90 89 89 89 90 92 92 91 91 91 90 90 92 95 94 93 101 104 95 92 98 94 86 85 83 79 79 81 80 78 76 74 73 74 76 81 83 80 77 78 77 74 69 66 65 66 65 67 69 70 71 73 74 74 73 72 71 70 71 71 69 69 69 70 72 73 74 74 73 72 71 69 67 65 65 65 65 65 66 67 68
85 86 85 87 90 89 87 87 88 89 90 92 92 92 92 92 94 96 98 99 101 105 106 104 104 106 102 98 99 98 97 97 96 94 93 91 90 90 90 88 85 81 78 79 81 81 80 78 77 76 75 73 72 72 72 74 76 77 77 78 78 78 78 78 76 73 70 70 72 73 74 73 73 73 72 70 69 69 68 68 69 68 68 69 70 70
80 82 82 82 84 85 83 82 82 83 84 86 88 89 89 91 94 96 95 95 96 97 99 97 96 97 99 98 97 95 93 93 94 93 93 92 90 89 89 88 87 85 86 88 87 86 86 86 85 84 80 76 73 73 73 74 75 75 75 76 77 78 79 79 78 74 70 69 72 74 72 71 70 70 70 70 70 70 70 69 69 69 70 70 70 70
76 79 80 79 80 81 80 80 79 77 77 79 81 82 83 85 88 88 87 86 86 87 88 87 87 90 92 89 84 82 80 80 81 81 81 81 82 86 90 92 93 91 90 89 87 86 85 85 84 83 80 76 74 73 72 72 72 72 72 72 72 73 74 73 73 72 69 67 67 67 67 67 68 70 71 72 72 71 70 69 69 69 69 69 69 70
64 69 71 72 75 78 78 77 77 75 75 78 78 77 78 79 80 80 81 81 80 79 81 82 82 82 79 75 71 69 69 69 67 66 68 71 75 81 86 88 88 87 84 82 80 79 79 80 81 81 79 76 72 70 70 70 71 71 71 70 70 70 69 69 69 69 67 65 65 67 70 71 72 73 74 74 74 73 72 70 68 67 68 69 69 69
56 58 59 60 66 73 76 76 75 75 76 76 74 74 75 76 76 78 79 78 76 76 78 79 78 77 75 73 69 66 65 64 62 63 66 68 69 71 74 77 79 80 80 80 80 79 78 77 77 76 75 72 69 68 68 69 71 72 72 72 71 71 69 68 67 66 65 66 70 73 75 74 73 72 73 74 75 74 71 67 65 66 67 68 68 68
73 73 72 71 74 79 82 81 82 84 84 81 78 76 77 77 78 79 78 76 76 78 79 78 78 78 76 73 71 68 66 63 63 66 68 69 70 71 72 74 77 79 81 82 80 77 73 70 69 69 68 68 68 68 68 70 72 73 74 74 74 73 72 70 68 68 70 72 74 75 75 74 73 72 72 72 71 68 65 63 63 64 65 66 67 68
84 84 85 86 86 88 88 88 91 92 89 85 83 81 81 81 81 82 83 82 82 80 77 76 78 78 76 74 72 71 69 67 68 71 73 74 76 77 77 78 79 78 77 76 74 70 65 63 62 63 64 65 67 68 69 71 73 75 75 75 75 75 74 73 72 73 75 76 77 76 75 74 74 73 72 70 67 63 61 60 61 63 65 67 68 69
82 83 84 85 86 86 87 88 92 93 92 91 91 91 91 89 86 85 82 80 81 82 80 78 78 78 77 76 76 76 75 73 73 75 77 79 80 79 78 76 72 69 67 66 65 64 63 63 62 63 63 64 65 67 70 72 73 75 75 76 76 77 77 77 77 78 79 78 77 76 75 74 73 72 70 67 63 60 59 60 62 64 66 68 70 71
80 81 81 81 82 81 81 83 85 86 87 89 88 88 87 83 82 81 77 77 81 85 84 83 82 82 82 83 84 84 82 80 80 81 82 82 82 80 75 69 65 63 62 61 61 62 62 62 62 61 62 62 63 64 68 72 75 76 77 78 79 80 80 81 81 80 79 78 76 74 72 70 68 67 65 63 61 60 61 63 65 66 68 70 71 71
78 79 80 81 81 81 80 81 82 82 85 87 86 86 85 84 85 86 85 89 95 96 94 93 90 85 82 80 80 81 80 82 84 85 84 83 80 75 69 65 65 66 66 65 63 62 61 60 59 60 61 61 62 62 64 68 72 75 77 78 79 80 79 79 77 76 75 73 71 69 67 65 63 62 61 61 62 63 64 65 67 68 69 71 71 69
77 78 79 81 82 82 81 80 80 80 81 84 85 85 85 87 90 92 92 95 96 93 88 84 78 74 74 78 83 87 89 92 92 88 85 81 77 73 70 70 71 70 68 67 67 65 63 62 63 64 65 66 66 67 67 68 69 71 72 72 72 73 74 73 72 71 70 68 67 66 65 63 62 61 62 63 65 67 67 67 67 67 69 70 70 68
78 77 77 78 79 80 80 81 82 81 81 82 82 81 79 77 76 77 83 90 93 93 92 89 85 84 85 86 85 84 83 83 80 74 72 71 71 71 73 75 74 71 71 74 76 75 73 72 71 70 71 71 71 70 70 71 70 70 69 68 69 70 71 71 71 70 70 67 65 64 63 62 62 63 64 66 67 68 68 68 67 67 69 70 68 66
77 76 76 76 76 76 78 80 82 83 84 84 85 84 82 77 70 66 69 72 75 80 85 88 88 88 85 78 71 66 66 68 67 66 67 70 73 75 77 79 80 80 82 83 83 82 80 80 78 75 71 69 69 69 70 71 71 72 72 72 73 74 73 72 71 70 68 65 63 62 61 62 63 65 67 68 67 68 70 70 69 69 70 70 69 67
72 73 74 74 74 74 76 77 79 81 81 81 82 83 82 81 81 80 79 76 74 73 72 72 74 76 76 74 71 73 78 81 80 79 79 79 81 82 82 84 85 84 82 79 77 77 77 79 79 77 72 68 67 67 70 72 73 74 75 75 76 76 74 72 69 66 64 63 63 63 63 63 64 65 68 69 67 66 66 65 65 65 67 68 68 69
69 70 71 72 72 73 75 77 77 78 77 76 77 79 80 81 83 86 88 89 89 88 86 85 86 89 91 91 91 95 97 93 86 83 81 80 79 78 77 77 78 79 79 76 72 70 72 74 76 75 73 70 68 68 70 73 75 76 76 76 75 74 72 70 69 67 66 66 67 67 67 66 65 66 69 68 65 62 61 60 60 61 63 64 64 64
66 65 67 69 70 71 74 76 75 75 75 73 74 76 77 79 81 83 86 89 91 93 94 95 97 99 102 103 104 106 107 101 94 88 80 72 68 68 68 69 72 76 78 77 73 71 72 74 74 73 71 70 71 71 72 73 76 77 76 75 74 73 72 72 72 71 70 70 70 70 69 68 67 68 70 71 70 69 67 65 62 62 62 63 62 62
65 64 65 67 68 70 72 72 71 72 73 73 73 74 75 77 78 79 81 83 85 88 90 92 94 95 96 98 100 102 105 106 105 101 93 84 78 78 79 79 80 80 77 73 69 71 76 77 75 74 74 74 76 77 76 75 76 77 77 76 76 74 74 73 72 72 72 71 71 71 71 70 70 71 73 75 74 72 69 66 64 64 64 63 62 61
64 63 63 64 66 67 68 67 65 67 69 69 71 73 73 75 78 79 80 82 82 84 85 87 88 90 91 93 95 97 99 101 103 104 104 103 103 103 102 101 100 98 94 89 87 90 94 91 84 80 79 79 79 80 79 78 78 78 78 79 79 78 76 74 73 74 74 73 73 72 71 72 73 74 76 77 76 73 70 67 65 63 62 61 59 59
62 62 62 63 63 63 64 63 61 61 62 63 66 68 70 72 75 77 79 82 84 85 87 88 90 91 92 93 95 96 98 99 100 101 103 104 106 107 106 106 105 104 104 104 104 105 104 101 95 89 86 84 83 83 82 81 80 80 80 80 81 81 78 75 75 75 75 75 74 73 73 73 74 75 78 80 80 78 74 70 65 61 60 58 58 61
60 62 62 60 58 59 61 60 57 56 58 58 59 61 65 68 71 72 74 77 80 82 84 86 89 91 93 95 97 99 100 101 101 102 103 103 102 102 101 101 100 99 98 98 98 98 97 97 96 94 92 90 90 90 88 85 82 81 81 83 85 85 81 78 76 76 75 75 75 74 74 75 75 77 79 80 80 79 76 72 67 63 61 60 61 64
56 57 56 54 55 58 59 56 55 58 62 61 59 59 61 63 65 68 70 73 75 77 79 81 83 85 87 89 92 95 98 100 101 103 104 105 104 104 103 102 101 100 98 96 95 96 96 96 96 96 95 95 95 94 92 88 83 82 82 83 85 84 82 81 80 79 78 77 76 75 76 78 79 80 80 78 77 77 77 75 71 67 66 65 64 64
51 50 48 50 55 59 58 58 59 61 63 63 61 59 59 59 60 62 64 66 68 71 74 76 78 80 82 83 85 87 90 93 96 98 101 102 103 104 105 106 106 105 104 102 101 100 100 99 99 99 98 97 96 95 92 88 84 81 79 79 81 82 84 86 87 87 86 84 82 79 79 80 82 83 83 81 78 77 77 77 75 72 71 70 68 67
Wind_Direction
276 274 275 282 291 292 286 281 282 284 284 284 284 283 283 284 285 287 290 289 288 285 283 284 284 283 284 285 285 282 279 280 285 285 282 281 279 277 277 277 275 274 274 274 274 276 276 276 277 278 278 277 277 276 275 273 272 272 273 274 275 275 276 276 274 271 270 270 270 269 269 269 271 274 276 279 281 283 286 290 290 287 284 282 281 281
275 274 277 286 290 284 279 280 282 284 285 285 286 286 286 286 287 289 289 288 286 283 283 284 284 284 285 285 284 283 281 282 284 281 279 279 279 279 277 274 272 272 274 275 275 275 275 275 276 277 277 276 275 274 273 273 272 273 274 275 275 276 276 274 272 270 270 271 271 271 271 272 274 276 278 280 282 285 287 288 287 286 284 284 283 282
274 274 281 287 281 276 277 279 281 282 283 284 285 287 286 288 290 290 288 287 283 282 284 285 285 285 285 285 285 285 286 286 283 279 277 277 278 278 274 270 268 271 273 274 274 275 276 274 274 274 275 274 274 275 275 275 274 274 275 275 274 274 273 272 271 271 271 271 272 272 272 273 275 277 279 281 283 285 286 286 286 286 286 285 285 284
272 274 280 280 274 274 276 278 279 280 280 281 283 284 285 289 292 288 287 286 283 282 284 286 286 286 286 287 287 289 291 289 285 282 278 274 275 276 273 268 267 268 271 272 275 277 277 276 275 274 273 273 274 275 275 274 274 275 275 274 273 271 270 269 268 268 269 269 270 271 271 273 276 278 279 281 284 285 286 287 287 287 287 287 287 286
270 273 277 275 274 275 276 277 278 277 277 278 280 282 285 289 288 286 287 287 284 283 285 287 287 286 287 288 290 293 294 292 289 285 280 276 277 277 272 269 269 269 269 270 272 275 276 276 275 274 273 273 272 272 273 273 274 275 275 274 271 269 267 266 265 265 266 267 268 269 271 274 277 279 281 283 285 286 287 288 288 288 288 288 287 286
268 271 274 275 275 276 276 276 274 275 277 278 278 280 284 285 284 285 286 287 287 286 287 287 287 287 289 290 293 297 294 291 289 285 284 282 281 279 275 271 271 270 270 271 271 271 272 273 273 273 272 272 271 271 272 273 274 275 275 273 270 268 266 265 265 265 266 267 269 270 272 275 278 280 282 284 285 286 288 288 288 288 287 286 285 286
268 271 273 272 274 274 272 272 274 277 278 277 278 281 281 280 282 283 284 286 287 288 288 287 286 289 292 294 298 299 293 288 287 288 291 288 282 279 278 274 273 272 271 272 272 272 271 271 271 271 271 271 272 272 273 274 275 274 273 273 271 270 268 266 266 266 267 268 269 271 273 275 278 280 282 283 284 286 288 288 288 287 286 285 285 286
270 272 270 270 271 270 271 274 278 278 276 277 280 281 279 279 280 281 283 284 285 286 286 285 286 291 295 300 302 297 290 288 291 294 294 290 283 278 277 277 276 275 273 271 272 272 273 273 273 272 273 273 273 273 274 274 275 274 273 273 273 271 269 267 266 267 268 269 271 273 275 277 278 279 280 281 283 285 287 287 286 285 285 286 287 287
271 271 270 270 270 270 274 278 278 275 275 278 279 278 278 279 280 281 281 282 282 283 283 284 287 292 295 299 299 293 290 293 298 300 296 290 284 278 278 281 280 277 274 272 271 272 273 274 274 274 274 274 275 274 274 274 274 274 274 274 274 273 272 270 270 270 272 273 274 275 277 277 278 278 278 280 282 284 284 283 283 284 286 287 287 288
270 271 271 270 270 273 276 277 276 275 276 277 277 278 279 279 279 279 278 278 278 279 283 287 290 292 294 295 293 290 294 298 301 301 299 293 288 284 281 280 278 276 274 272 271 271 272 272 272 273 274 274 275 274 274 274 274 274 273 273 273 272 272 272 272 273 274 274 275 276 277 277 278 278 278 280 281 281 280 280 281 282 284 285 286 287
270 271 270 272 274 276 276 275 276 277 276 276 277 278 278 278 278 276 275 275 274 278 286 289 289 291 290 290 290 294 299 301 303 304 301 297 292 287 283 276 271 272 272 273 274 273 272 271 270 270 271 272 273 273 273 273 273 273 273 272 272 272 272 272 272 273 273 274 275 276 277 277 278 279 279 279 279 278 278 278 278 279 281 283 284 285
268 269 270 273 275 276 276 278 279 279 278 279 279 279 278 277 276 274 274 273 273 278 283 283 283 284 282 282 288 294 299 302 304 303 301 300 297 292 288 281 273 269 270 272 275 276 274 273 272 271 271 272 272 272 272 272 272 271 271 272 272 273 273 273 273 273 273 274 275 276 277 278 279 279 279 278 277 276 275 275 276 277 278 279 281 282
266 267 270 271 273 276 278 279 279 279 279 279 279 278 277 276 275 274 274 273 274 277 279 279 279 277 279 283 286 290 295 297 297 297 298 298 297 295 291 287 281 275 272 271 271 271 270 270 271 272 273 273 274 274 274 275 274 273 273 273 273 273 273 273 272 272 273 274 275 277 278 278 278 278 278 277 275 274 273 274 274 275 275 276 278 280
270 271 272 272 273 275 276 276 277 277 277 277 277 277 275 275 274 273 274 276 277 277 276 275 273 276 284 289 289 290 290 290 290 291 292 293 293 293 290 289 286 280 275 275 272 268 267 266 268 270 271 272 273 274 274 274 275 276 276 276 276 275 273 272 272 272 273 275 276 277 277 276 275 275 274 274 273 272 273 273 273 273 273 274 276 278
271 272 273 272 271 271 272 273 275 275 274 274 276 276 274 274 274 275 277 278 277 275 272 270 269 276 285 289 290 292 290 289 289 289 289 290 291 290 289 290 290 288 283 278 274 271 267 265 265 266 267 268 269 270 271 271 272 274 275 276 276 275 273 272 273 273 275 276 276 276 277 276 274 273 273 272 271 272 273 272 272 272 273 274 275 278
269 270 272 272 271 271 272 272 274 275 274 274 275 274 273 275 277 277 276 275 274 272 271 269 270 276 282 284 286 289 289 290 290 289 290 289 289 288 288 289 291 292 290 283 277 273 270 266 264 263 264 264 265 267 269 270 270 271 272 273 274 274 273 272 273 274 275 276 275 275 276 275 275 274 274 272 271 272 273 273 271 272 274 275 277 278
273 272 271 271 272 274 274 274 273 274 274 273 272 272 275 277 276 275 274 273 273 272 270 268 271 275 278 281 283 284 285 287 287 288 289 288 287 287 289 290 289 290 290 287 282 278 274 269 264 262 263 264 265 266 267 268 268 269 270 271 271 271 272 272 273 273 273 273 273 274 274 274 274 274 274 273 273 274 274 273 271 272 275 277 277 277
277 276 274 274 275 275 275 274 271 271 271 271 270 272 275 275 274 274 276 276 274 273 271 268 268 271 273 278 284 283 282 284 284 284 285 286 288 288 289 291 291 289 288 288 286 282 276 271 266 262 261 264 266 267 266 266 266 267 268 269 271 271 271 272 272 272 272 272 272 272 272 272 271 272 273 274 274 274 274 273 272 272 275 277 277 276
280 280 279 279 278 278 278 276 273 272 271 271 272 272 272 271 271 272 273 274 274 275 274 271 268 267 269 274 280 281 280 281 281 281 282 284 286 287 288 289 289 288 288 288 288 283 277 270 265 262 259 262 266 267 266 265 266 267 268 270 271 272 272 272 272 272 272 272 272 272 272 271 270 271 272 273 274 275 275 274 273 274 275 275 274 274
280 281 281 280 279 280 280 279 278 277 276 275 275 273 270 269 269 269 269 271 272 273 274 273 269 267 268 273 276 277 278 279 279 279 280 281 282 283 283 282 283 284 284 284 284 282 278 272 266 262 258 257 262 265 265 264 264 266 268 270 271 271 271 271 271 271 270 271 271 271 271 271 271 270 271 272 274 275 275 275 274 274 274 272 270 271
279 280 280 281 280 280 280 280 280 279 278 277 275 273 272 271 269 269 268 269 271 273 274 275 273 270 269 271 274 276 278 279 280 280 278 278 279 278 278 278 279 280 281 281 281 279 278 275 268 262 258 255 259 266 266 264 264 265 267 269 271 271 271 270 270 269 269 269 270 270 271 271 271 271 271 272 274 275 275 275 274 273 272 270 269 269
279 280 281 281 280 278 278 278 277 276 275 276 276 276 275 273 271 269 269 272 275 276 276 276 276 274 271 268 272 277 278 279 279 278 276 276 275 274 274 275 276 276 278 280 280 278 277 274 268 261 259 257 259 264 266 266 266 265 265 267 268 270 271 271 270 268 268 268 268 269 269 270 271 272 272 273 274 275 276 276 275 273 271 270 269 270
277 279 279 279 278 277 277 276 276 276 275 275 275 276 276 275 273 272 274 276 276 273 273 274 273 274 274 275 277 277 275 275 275 274 275 275 272 271 272 272 271 272 274 277 278 276 274 275 272 264 259 258 261 266 267 266 266 266 266 267 268 269 270 270 269 268 267 267 267 267 267 268 269 270 271 272 273 274 275 276 275 274 272 271 271 272
274 275 275 275 276 276 277 276 275 274 274 274 275 277 276 275 274 273 274 273 270 268 269 270 269 270 276 283 282 276 273 273 273 274 274 272 268 267 269 268 268 270 272 275 277 275 274 278 278 273 268 266 268 271 270 267 266 267 267 268 268 270 270 268 267 267 267 267 266 266 267 267 267 267 268 270 271 272 274 274 274 273 272 273 274 276
272 271 272 273 273 274 274 273 272 272 273 273 273 273 271 269 269 269 269 268 267 266 267 267 267 270 277 280 275 271 270 269 269 270 268 265 263 263 265 265 266 270 273 273 274 276 277 280 281 281 280 277 275 276 274 271 269 268 268 269 270 270 269 267 266 265 266 266 267 268 269 268 267 267 267 268 269 270 271 272 273 272 273 274 276 278
270 269 270 270 270 270 270 270 272 274 272 269 266 264 263 263 265 266 267 266 264 264 264 264 267 272 275 273 267 264 262 260 260 260 258 258 258 259 262 264 265 269 273 275 276 278 280 280 280 281 282 282 280 280 278 275 273 271 272 275 276 275 271 268 267 266 266 267 269 270 270 268 266 265 265 266 267 268 269 270 271 272 274 277 278 278
269 268 268 268 268 268 268 269 270 271 270 266 264 263 261 261 263 264 266 266 265 268 268 266 270 275 274 271 267 262 258 258 259 255 252 258 262 260 260 263 267 272 276 278 278 279 280 279 279 281 281 281 279 277 277 277 277 278 278 280 282 281 277 273 271 269 267 268 269 268 267 265 263 263 264 265 265 266 267 269 270 273 275 277 278 279
269 269 269 269 269 269 270 270 270 270 269 268 268 267 266 266 267 267 268 268 270 273 273 271 273 276 275 272 270 266 262 263 266 262 258 262 265 262 259 263 270 277 280 278 277 277 279 278 278 278 277 274 271 272 275 279 281 282 282 282 282 282 281 279 276 273 270 268 267 265 262 261 260 261 262 264 265 266 267 269 271 274 276 278 278 279
270 270 271 271 271 271 271 272 272 271 271 271 271 271 271 271 271 272 273 273 274 276 277 277 278 279 278 278 277 276 273 273 275 275 271 268 268 268 268 271 275 278 278 275 273 274 275 276 275 274 274 273 273 275 277 278 279 280 281 282 281 280 280 279 278 277 275 273 270 265 260 259 259 261 262 263 265 266 268 270 273 275 277 278 278 278
271 271 272 273 274 274 273 273 273 273 272 272 273 273 273 274 273 273 274 274 275 276 278 279 280 280 280 281 281 280 279 279 280 280 278 277 276 276 276 276 276 277 275 274 274 273 274 275 276 276 277 276 275 275 275 276 277 277 278 279 279 279 278 276 275 275 275 274 270 263 258 258 258 260 261 263 265 267 269 272 275 277 279 278 277 276
270 271 272 273 273 273 273 273 273 273 273 273 272 273 274 274 274 274 274 275 275 276 276 277 278 278 278 279 280 280 278 278 279 280 280 280 279 277 276 276 275 276 276 277 277 276 275 275 276 277 278 277 276 275 274 274 274 274 273 274 275 275 274 272 271 270 270 270 266 261 258 258 260 262 264 266 267 269 270 273 276 279 279 277 275 274
271 271 272 272 272 273 273 273 273 273 272 271 269 270 271 272 273 274 275 275 275 276 276 277 278 279 279 278 278 278 277 277 277 278 278 277 276 275 275 276 276 277 278 278 278 277 277 276 276 277 277 278 277 276 275 274 272 270 269 271 272 271 271 270 270 268 266 264 261 259 260 264 266 268 270 269 268 269 271 275 278 278 276 273 272 272
270 271 272 272 273 274 274 275 276 276 274 272 271 271 271 271 272 273 273 274 275 277 278 278 279 279 279 278 276 275 275 275 275 274 271 271 272 274 275 276 277 278 279 279 279 279 278 278 277 277 277 277 275 273 272 271 270 268 268 269 270 270 270 270 269 266 262 259 258 262 267 271 272 271 270 269 268 270 274 277 277 275 271 270 270 271
261 262 264 266 269 271 272 274 276 274 271 271 273 274 274 274 274 274 275 275 277 277 277 277 277 276 275 274 273 273 272 272 272 270 269 270 272 273 274 275 277 278 279 280 281 281 280 279 278 277 275 272 270 268 267 266 266 267 268 270 270 269 268 268 266 264 262 262 264 268 271 271 271 270 270 270 271 274 277 277 275 271 269 269 270 271
261 261 261 261 263 266 268 269 270 268 267 269 272 272 273 274 274 275 275 276 275 275 274 273 273 272 272 272 272 272 271 271 271 271 271 273 274 274 275 276 278 279 279 280 280 280 278 276 275 273 271 268 267 266 264 262 262 263 265 266 266 265 265 264 263 261 262 265 268 269 270 271 271 272 272 273 274 276 276 275 272 269 269 269 271 271
265 265 265 264 265 266 266 266 266 266 267 268 269 269 270 271 273 274 275 274 272 271 271 270 270 271 272 272 271 271 270 270 272 273 274 275 276 277 277 278 278 277 276 276 276 275 273 271 270 269 268 267 266 265 262 261 260 260 260 261 261 261 262 262 261 262 265 268 270 271 271 272 272 273 273 274 274 274 273 271 269 269 270 271 271 272
267 267 267 267 267 267 267 267 267 268 268 267 267 268 270 271 272 273 273 271 269 268 266 266 268 270 270 270 270 270 270 270 271 273 275 275 276 277 277 276 273 271 269 269 268 268 268 268 268 269 268 266 265 263 262 261 260 259 259 260 261 263 264 265 266 267 269 271 272 272 273 273 272 272 272 272 272 271 270 269 269 270 271 272 272 271
267 268 269 269 269 269 269 269 269 269 269 269 268 269 270 270 269 268 268 269 270 271 270 270 271 272 272 271 271 271 271 271 271 273 274 275 275 275 273 269 267 267 266 265 266 267 268 269 270 270 268 265 263 262 261 261 261 261 262 262 264 266 268 269 271 272 272 272 272 272 272 272 271 271 270 270 270 270 269 269 270 271 272 272 270 268
265 266 267 268 268 268 269 269 268 268 269 269 268 268 268 268 267 267 268 270 271 274 276 277 276 275 273 271 271 272 273 274 275 275 275 275 274 271 265 262 265 269 268 267 268 269 269 270 270 269 267 267 266 266 265 264 264 264 264 265 266 268 269 270 272 272 273 273 272 271 270 269 269 269 269 270 270 270 270 270 271 271 270 269 268 267
268 267 266 266 266 267 267 268 268 269 269 269 268 267 267 267 267 268 268 268 269 271 274 274 272 270 269 270 272 274 276 277 278 278 276 273 270 264 260 261 266 268 267 268 272 272 271 271 271 269 269 269 269 269 269 269 268 266 266 266 267 268 269 270 271 272 272 272 271 270 268 268 268 268 270 271 271 271 271 270 270 269 268 267 266 266
272 271 269 268 267 267 266 265 265 266 266 267 267 267 266 267 267 267 267 266 265 266 266 266 265 267 268 270 272 273 273 272 271 270 267 265 262 260 260 263 264 265 266 270 273 273 272 272 272 272 271 271 270 269 268 268 268 267 267 267 268 268 269 270 271 271 270 270 269 268 268 269 270 271 272 272 272 271 269 268 267 268 267 266 266 266
274 273 272 271 270 269 267 266 265 264 264 264 266 266 266 265 263 261 260 260 260 259 259 260 261 262 262 261 260 260 261 262 261 260 258 259 261 263 264 266 267 268 270 271 271 272 271 270 270 271 271 270 269 267 266 266 266 265 266 267 268 267 266 266 267 267 267 267 267 267 269 271 273 274 275 274 273 270 267 265 264 264 264 265 266 268
274 274 273 273 272 271 269 267 266 266 265 265 265 265 265 265 263 260 259 257 256 254 252 251 253 256 256 255 254 258 263 267 268 267 266 267 268 269 269 270 271 271 271 270 269 270 269 267 266 267 266 266 267 266 264 264 264 263 264 265 265 264 262 261 262 263 264 264 265 266 268 270 272 272 272 272 269 265 262 262 262 262 263 264 266 268
274 275 275 274 272 271 270 269 268 269 269 268 267 267 266 265 265 264 263 261 260 259 257 255 255 258 260 261 262 264 267 270 270 270 271 271 270 270 270 271 272 272 271 270 267 266 265 265 264 263 263 264 266 265 264 262 261 261 262 261 261 261 261 261 262 262 262 263 263 264 266 267 268 267 266 265 262 260 261 263 264 265 266 268 269 269
275 275 274 273 272 271 271 271 272 272 272 271 270 270 268 267 266 266 266 265 264 264 263 262 261 261 262 263 263 263 264 265 266 266 266 264 263 263 265 267 269 268 265 263 262 262 263 265 264 262 261 263 265 265 264 262 261 261 261 260 258 258 261 263 263 263 263 262 261 261 262 263 264 264 263 261 259 260 264 267 268 268 268 270 271 271
275 274 273 271 271 271 271 272 274 273 272 271 270 270 269 268 267 266 267 267 266 266 266 266 266 266 265 265 264 263 262 262 262 262 260 258 257 258 260 262 264 263 259 255 255 260 264 266 266 262 261 263 264 264 263 261 260 260 261 260 259 258 259 260 260 262 264 264 263 263 262 261 260 260 260 260 259 261 264 266 267 267 268 269 272 274
275 276 275 273 273 273 272 272 272 271 271 271 270 269 268 267 267 266 266 266 266 266 266 266 266 266 266 266 266 266 265 264 263 261 260 259 259 261 262 262 262 262 260 257 258 262 265 267 266 263 260 261 262 262 261 259 257 257 258 258 259 258 256 256 257 260 263 264 265 265 266 265 263 259 257 257 258 258 259 261 263 266 268 270 273 275
278 277 276 277 277 276 275 274 272 271 270 269 269 268 268 267 268 267 267 266 266 265 265 265 265 265 265 265 266 266 266 266 266 265 264 263 263 263 263 263 263 262 261 260 260 262 264 265 264 262 260 259 259 259 258 255 253 254 256 257 257 256 255 256 258 260 262 262 263 263 265 267 266 263 259 257 256 256 256 256 258 260 263 266 268 269
281 279 279 282 281 279 278 278 277 276 272 269 269 269 269 269 269 269 268 268 268 268 267 267 266 266 266 266 266 266 266 266 266 266 266 265 265 265 264 264 263 262 261 260 259 259 260 260 260 260 259 258 257 257 254 249 248 251 254 256 256 255 255 256 259 261 262 262 261 262 263 264 264 263 259 256 254 254 253 252 253 254 256 259 261 262
283 283 284 286 285 283 283 284 285 286 283 279 276 275 273 272 271 270 270 270 270 270 270 270 269 269 269 269 269 269 268 268 267 267 267 266 266 265 265 264 263 262 261 260 258 257 257 256 256 256 256 256 255 252 247 243 243 246 249 251 252 252 254 257 260 261 262 261 261 261 262 262 261 260 257 253 250 249 250 250 251 251 252 253 254 256
284 284 285 284 283 284 287 289 290 291 289 287 285 283 281 278 275 273 272 271 271 271 271 271 271 270 270 270 271 271 271 271 270 270 269 269 268 267 266 266 265 263 262 261 259 258 257 256 255 254 252 250 248 244 241 240 241 243 244 247 249 252 255 259 261 263 264 262 260 260 260 259 259 258 256 253 251 249 249 250 250 251 250 250 250 253
Height
5815 5811 5810 5817 5821 5820 5816 5812 5810 5810 5808 5805 5803 5801 5801 5799 5798 5802 5805 5806 5804 5793 5788 5791 5788 5786 5789 5793 5798 5801 5801 5801 5801 5800 5799 5798 5797 5796 5795 5793 5792 5790 5789 5791 5789 5789 5789 5787 5787 5786 5786 5786 5786 5786 5786 5786 5786 5786 5786 5785 5785 5784 5783 5783 5782 5782 5781 5781 5781 5781 5781 5781 5781 5780 5781 5780 5780 5779 5779 5778 5777 5776 5775 5775 5774 5774
5810 5804 5808 5816 5817 5813 5809 5808 5807 5805 5803 5801 5799 5797 5797 5796 5794 5797 5799 5799 5799 5787 5780 5783 5781 5779 5783 5786 5790 5793 5794 5797 5797 5796 5795 5794 5792 5792 5791 5789 5788 5786 5785 5785 5785 5784 5784 5783 5782 5782 5782 5782 5781 5781 5781 5781 5781 5781 5781 5780 5780 5779 5778 5778 5777 5777 5777 5776 5776 5776 5776 5776 5776 5776 5776 5775 5775 5774 5774 5773 5771 5771 5770 5770 5769 5769
5802 5799 5808 5813 5809 5805 5804 5804 5803 5801 5799 5797 5796 5794 5791 5792 5791 5791 5792 5793 5791 5781 5775 5777 5773 5772 5777 5779 5783 5787 5789 5792 5792 5791 5791 5790 5788 5788 5787 5786 5784 5783 5782 5781 5780 5780 5779 5779 5778 5777 5777 5776 5776 5776 5776 5776 5776 5776 5776 5775 5775 5774 5773 5773 5772 5772 5772 5771 5771 5771 5771 5771 5771 5771 5771 5770 5770 5769 5768 5767 5766 5766 5765 5765 5764 5763
5795 5796 5805 5806 5801 5800 5799 5800 5799 5796 5795 5793 5793 5790 5787 5790 5788 5783 5784 5786 5784 5778 5773 5771 5765 5764 5771 5773 5776 5782 5784 5785 5786 5786 5787 5786 5784 5784 5783 5782 5781 5780 5779 5778 5777 5776 5774 5774 5773 5773 5772 5771 5771 5771 5771 5771 5770 5771 5771 5770 5770 5769 5768 5768 5767 5767 5767 5766 5766 5766 5766 5766 5766 5766 5766 5765 5765 5764 5762 5762 5761 5760 5759 5759 5758 5757
5789 5794 5799 5798 5796 5796 5794 5794 5794 5791 5790 5789 5788 5787 5785 5786 5784 5779 5778 5777 5776 5774 5771 5769 5758 5754 5764 5768 5771 5778 5779 5779 5781 5781 5782 5782 5781 5780 5779 5778 5778 5776 5775 5774 5774 5772 5770 5769 5768 5767 5767 5766 5766 5766 5765 5765 5765 5765 5765 5764 5764 5763 5763 5763 5762 5762 5762 5761 5761 5761 5761 5762 5762 5761 5761 5760 5759 5757 5756 5756 5755 5754 5753 5752 5751 5751
5785 5792 5794 5792 5791 5790 5789 5788 5788 5788 5786 5784 5783 5784 5784 5782 5779 5776 5775 5771 5768 5768 5768 5767 5755 5746 5755 5763 5766 5773 5774 5773 5775 5775 5777 5779 5777 5775 5774 5774 5774 5772 5770 5770 5770 5768 5766 5765 5763 5762 5761 5760 5760 5760 5759 5759 5760 5760 5759 5758 5758 5758 5758 5757 5757 5757 5757 5757 5756 5757 5757 5757 5756 5755 5755 5754 5752 5751 5751 5750 5749 5748 5747 5746 5745 5744
5781 5789 5789 5786 5785 5784 5782 5781 5784 5785 5781 5777 5777 5781 5781 5777 5775 5773 5772 5769 5765 5762 5761 5760 5754 5744 5745 5756 5762 5765 5765 5765 5768 5771 5773 5775 5774 5770 5769 5769 5769 5768 5767 5765 5764 5763 5761 5760 5759 5757 5755 5755 5754 5754 5754 5754 5754 5754 5753 5753 5752 5752 5752 5752 5752 5752 5752 5752 5751 5751 5751 5751 5750 5749 5748 5747 5746 5746 5745 5744 5743 5742 5741 5740 5739 5738
5779 5783 5782 5781 5780 5777 5775 5778 5782 5780 5774 5772 5774 5775 5773 5772 5772 5770 5769 5767 5763 5761 5756 5752 5753 5747 5738 5745 5755 5755 5754 5757 5761 5767 5769 5769 5769 5767 5765 5765 5765 5763 5762 5761 5759 5758 5757 5755 5754 5752 5750 5749 5749 5748 5748 5748 5748 5748 5748 5747 5747 5747 5747 5747 5746 5746 5746 5746 5745 5745 5745 5744 5744 5743 5742 5741 5741 5740 5739 5738 5737 5736 5735 5734 5733 5732
5775 5775 5775 5775 5773 5771 5773 5775 5775 5772 5769 5769 5769 5767 5766 5766 5766 5766 5764 5763 5760 5758 5752 5747 5754 5752 5737 5737 5745 5744 5744 5750 5755 5760 5763 5764 5764 5763 5762 5762 5761 5759 5756 5755 5755 5753 5752 5750 5748 5746 5744 5743 5742 5742 5742 5742 5742 5742 5742 5741 5741 5741 5740 5740 5740 5740 5739 5739 5739 5738 5738 5738 5738 5737 5737 5736 5736 5735 5734 5733 5732 5731 5729 5728 5728 5727
5770 5769 5769 5767 5766 5768 5770 5770 5768 5766 5765 5765 5764 5762 5761 5760 5759 5759 5757 5757 5756 5753 5748 5747 5753 5753 5739 5732 5734 5735 5738 5744 5748 5752 5755 5758 5759 5758 5759 5758 5755 5753 5751 5749 5749 5748 5747 5745 5743 5740 5738 5737 5736 5735 5735 5735 5735 5735 5735 5735 5734 5734 5734 5734 5734 5733 5733 5732 5732 5732 5732 5732 5732 5731 5731 5730 5730 5729 5728 5727 5726 5725 5724 5723 5722 5721
5765 5763 5762 5761 5762 5763 5763 5762 5762 5761 5759 5759 5759 5757 5756 5754 5752 5751 5749 5750 5749 5745 5747 5749 5750 5750 5740 5727 5726 5729 5733 5736 5738 5742 5745 5749 5753 5752 5752 5753 5752 5749 5746 5743 5742 5742 5741 5739 5737 5735 5733 5731 5729 5728 5728 5728 5729 5729 5728 5728 5728 5727 5727 5727 5727 5727 5726 5726 5726 5726 5725 5725 5725 5725 5725 5725 5724 5723 5722 5721 5720 5719 5718 5717 5716 5715
5759 5756 5757 5757 5757 5757 5756 5756 5755 5755 5754 5753 5753 5751 5749 5747 5745 5743 5741 5742 5741 5740 5744 5745 5745 5745 5736 5726 5726 5728 5729 5731 5731 5732 5733 5736 5743 5745 5743 5745 5748 5746 5744 5741 5738 5736 5735 5732 5730 5729 5727 5724 5722 5722 5722 5722 5723 5723 5722 5722 5721 5721 5720 5720 5720 5720 5719 5719 5719 5719 5719 5719 5719 5719 5719 5719 5718 5717 5717 5716 5715 5714 5713 5711 5710 5710
5752 5751 5752 5752 5752 5752 5751 5749 5749 5748 5748 5747 5746 5744 5742 5740 5738 5734 5734 5734 5734 5737 5739 5738 5737 5734 5726 5725 5729 5729 5730 5730 5727 5726 5726 5726 5730 5735 5734 5734 5740 5743 5741 5739 5736 5732 5730 5727 5724 5722 5720 5717 5715 5716 5716 5716 5716 5716 5716 5716 5715 5714 5714 5713 5713 5713 5713 5713 5713 5713 5713 5712 5713 5713 5713 5713 5712 5712 5711 5710 5709 5708 5707 5706 5705 5704
5745 5747 5747 5745 5746 5747 5743 5742 5742 5741 5742 5740 5739 5738 5735 5733 5729 5725 5728 5728 5728 5731 5732 5730 5727 5722 5718 5721 5725 5726 5728 5727 5723 5723 5723 5720 5720 5723 5723 5721 5726 5734 5737 5734 5731 5728 5725 5723 5720 5717 5714 5711 5709 5709 5710 5709 5709 5709 5709 5709 5708 5708 5708 5707 5707 5708 5708 5707 5707 5707 5706 5706 5706 5706 5707 5706 5706 5706 5705 5705 5704 5703 5702 5701 5699 5698
5736 5739 5743 5739 5738 5740 5737 5736 5735 5734 5734 5733 5733 5731 5726 5726 5722 5719 5722 5722 5719 5721 5722 5720 5715 5712 5715 5717 5717 5718 5719 5719 5718 5719 5718 5717 5715 5712 5713 5712 5711 5717 5726 5729 5726 5723 5720 5717 5715 5712 5709 5707 5704 5703 5704 5703 5702 5702 5702 5702 5702 5702 5702 5702 5702 5702 5702 5701 5701 5700 5700 5700 5700 5700 5700 5700 5700 5700 5699 5698 5698 5697 5696 5695 5694 5692
5727 5731 5738 5733 5729 5734 5732 5730 5730 5727 5726 5726 5726 5721 5718 5721 5720 5715 5713 5713 5712 5709 5710 5709 5703 5705 5712 5711 5712 5713 5711 5711 5711 5711 5711 5711 5710 5706 5705 5707 5704 5702 5710 5718 5719 5717 5714 5711 5708 5706 5703 5701 5699 5698 5698 5698 5697 5696 5695 5695 5695 5695 5696 5697 5697 5696 5696 5695 5694 5694 5694 5694 5693 5693 5693 5693 5693 5693 5692 5692 5691 5691 5690 5689 5688 5687
5716 5720 5730 5725 5722 5727 5725 5723 5724 5720 5717 5718 5716 5714 5715 5716 5714 5707 5701 5704 5704 5697 5698 5703 5697 5698 5704 5703 5706 5709 5708 5708 5707 5705 5705 5702 5702 5701 5698 5700 5700 5696 5697 5703 5708 5708 5706 5704 5702 5699 5696 5694 5693 5692 5692 5692 5691 5691 5690 5689 5689 5689 5689 5690 5690 5690 5689 5689 5689 5688 5688 5687 5687 5686 5686 5686 5686 5686 5686 5685 5685 5684 5683 5682 5681 5680
5706 5705 5715 5719 5715 5717 5717 5714 5713 5712 5709 5706 5707 5711 5712 5707 5704 5700 5692 5691 5693 5684 5686 5696 5694 5693 5696 5695 5698 5702 5703 5705 5703 5701 5699 5695 5695 5695 5692 5691 5691 5689 5688 5691 5695 5696 5697 5697 5694 5693 5691 5687 5686 5686 5686 5685 5684 5684 5684 5683 5683 5683 5683 5683 5683 5683 5682 5682 5682 5682 5681 5681 5680 5679 5679 5679 5679 5678 5679 5678 5678 5678 5677 5676 5674 5673
5698 5691 5698 5709 5706 5704 5706 5704 5702 5703 5701 5697 5700 5704 5703 5697 5694 5693 5685 5679 5681 5674 5672 5681 5686 5687 5690 5691 5693 5695 5696 5696 5695 5694 5692 5691 5689 5688 5687 5685 5681 5679 5679 5682 5683 5683 5685 5688 5686 5685 5684 5682 5680 5680 5679 5678 5677 5677 5676 5676 5676 5676 5676 5676 5677 5677 5676 5676 5675 5675 5674 5674 5673 5673 5672 5671 5671 5671 5671 5671 5670 5670 5670 5669 5667 5665
5690 5682 5681 5693 5696 5692 5693 5693 5692 5693 5693 5690 5689 5690 5690 5689 5685 5681 5676 5672 5671 5666 5661 5665 5668 5674 5686 5691 5690 5690 5688 5685 5687 5687 5685 5684 5684 5682 5681 5679 5676 5673 5671 5674 5676 5673 5673 5678 5678 5676 5676 5675 5674 5672 5672 5671 5671 5670 5669 5668 5668 5668 5669 5669 5670 5669 5669 5669 5669 5668 5667 5667 5666 5666 5665 5664 5663 5663 5663 5662 5663 5663 5662 5661 5660 5657
5680 5674 5671 5677 5684 5683 5683 5684 5684 5684 5683 5679 5678 5677 5677 5678 5675 5669 5665 5664 5664 5658 5653 5652 5647 5656 5679 5689 5685 5684 5682 5678 5678 5678 5676 5676 5675 5673 5672 5671 5669 5667 5664 5665 5667 5665 5664 5667 5668 5667 5666 5667 5666 5664 5663 5663 5663 5663 5662 5661 5660 5659 5660 5662 5662 5662 5661 5661 5661 5661 5661 5660 5659 5659 5658 5657 5656 5656 5654 5654 5655 5655 5654 5653 5651 5649
5670 5667 5664 5665 5670 5672 5674 5677 5676 5675 5673 5670 5667 5667 5667 5667 5665 5659 5652 5655 5656 5648 5644 5641 5631 5636 5663 5682 5683 5679 5675 5672 5671 5668 5666 5667 5665 5663 5663 5662 5660 5659 5657 5655 5656 5657 5657 5657 5658 5658 5657 5658 5657 5654 5654 5654 5654 5654 5653 5653 5652 5652 5653 5654 5653 5653 5653 5653 5653 5654 5654 5652 5652 5652 5650 5649 5649 5648 5646 5645 5646 5646 5645 5644 5642 5641
5664 5659 5656 5657 5658 5660 5663 5666 5666 5664 5664 5661 5656 5657 5660 5658 5656 5650 5643 5645 5646 5637 5634 5632 5620 5618 5641 5667 5677 5673 5669 5666 5662 5658 5657 5657 5656 5654 5653 5652 5650 5649 5648 5647 5647 5649 5649 5648 5648 5648 5649 5649 5646 5645 5645 5645 5645 5644 5643 5643 5643 5644 5646 5646 5645 5644 5644 5645 5645 5646 5645 5645 5645 5644 5642 5641 5640 5639 5638 5637 5637 5637 5636 5634 5633 5632
5658 5652 5648 5648 5648 5648 5651 5654 5655 5654 5653 5649 5646 5651 5652 5649 5649 5644 5637 5636 5632 5625 5627 5622 5608 5608 5627 5649 5659 5658 5657 5658 5654 5651 5649 5646 5646 5646 5643 5642 5641 5639 5640 5640 5639 5639 5639 5638 5637 5637 5639 5638 5637 5636 5636 5635 5635 5635 5633 5633 5634 5636 5638 5637 5636 5636 5635 5636 5637 5637 5636 5636 5636 5635 5633 5632 5631 5630 5629 5628 5628 5627 5625 5625 5624 5623
5648 5642 5640 5638 5637 5637 5639 5641 5643 5645 5644 5639 5638 5642 5641 5639 5640 5635 5630 5627 5617 5614 5621 5611 5595 5603 5623 5635 5639 5641 5643 5644 5645 5644 5640 5636 5636 5636 5633 5631 5632 5632 5632 5633 5631 5630 5629 5628 5627 5627 5627 5627 5627 5626 5626 5626 5626 5625 5624 5623 5624 5627 5629 5628 5627 5627 5627 5627 5627 5627 5627 5627 5626 5625 5624 5623 5622 5621 5620 5619 5618 5617 5616 5615 5615 5614
5634 5630 5630 5629 5625 5625 5628 5632 5635 5638 5635 5629 5628 5631 5631 5631 5630 5625 5622 5615 5604 5605 5609 5598 5587 5598 5615 5622 5625 5630 5632 5632 5634 5634 5631 5628 5626 5624 5623 5622 5624 5625 5624 5624 5622 5619 5618 5618 5617 5616 5616 5616 5616 5616 5616 5615 5615 5616 5616 5615 5616 5617 5618 5618 5617 5617 5617 5618 5619 5619 5619 5617 5616 5615 5614 5614 5613 5612 5610 5609 5609 5608 5607 5606 5606 5604
5619 5616 5619 5618 5614 5614 5618 5623 5630 5629 5622 5618 5619 5621 5622 5622 5621 5619 5611 5601 5599 5599 5591 5587 5591 5592 5600 5611 5616 5621 5623 5622 5624 5626 5624 5620 5616 5614 5614 5614 5614 5615 5615 5614 5611 5608 5608 5607 5606 5605 5605 5605 5605 5605 5604 5603 5604 5607 5609 5609 5609 5608 5608 5608 5607 5607 5608 5608 5609 5609 5609 5608 5606 5605 5605 5605 5604 5602 5601 5601 5600 5599 5598 5597 5596 5595
5607 5602 5606 5607 5603 5606 5610 5613 5619 5618 5608 5607 5609 5610 5612 5613 5612 5609 5598 5593 5600 5589 5571 5581 5594 5584 5585 5601 5607 5609 5613 5613 5615 5617 5614 5611 5608 5606 5605 5604 5603 5603 5602 5599 5598 5597 5597 5595 5594 5594 5594 5594 5593 5592 5593 5592 5594 5597 5599 5601 5601 5600 5599 5598 5597 5597 5598 5598 5598 5599 5599 5598 5596 5596 5596 5595 5593 5592 5592 5592 5592 5591 5590 5589 5588 5587
5597 5589 5595 5596 5590 5594 5599 5600 5605 5604 5597 5595 5595 5595 5599 5602 5601 5596 5588 5588 5591 5575 5561 5575 5584 5573 5575 5588 5591 5596 5602 5600 5600 5602 5601 5600 5599 5597 5596 5595 5592 5589 5586 5583 5584 5585 5585 5583 5583 5583 5583 5583 5582 5581 5582 5582 5584 5585 5587 5590 5591 5591 5590 5589 5587 5588 5588 5588 5589 5589 5588 5587 5586 5586 5586 5585 5584 5584 5583 5583 5582 5581 5581 5580 5578 5577
5588 5580 5585 5586 5579 5580 5585 5586 5589 5589 5585 5583 5582 5583 5586 5586 5586 5584 5579 5580 5578 5565 5559 5567 5564 5558 5565 5573 5575 5583 5588 5585 5582 5582 5584 5587 5588 5586 5582 5578 5575 5572 5570 5571 5573 5575 5574 5573 5573 5574 5573 5573 5572 5571 5571 5571 5572 5574 5575 5577 5579 5579 5579 5577 5577 5579 5579 5580 5580 5578 5576 5575 5576 5576 5576 5575 5575 5575 5574 5573 5572 5571 5571 5569 5568 5566
5579 5573 5577 5578 5568 5565 5570 5573 5574 5575 5572 5569 5570 5573 5574 5572 5570 5570 5569 5569 5566 5557 5555 5556 5547 5544 5556 5564 5564 5567 5570 5569 5568 5568 5571 5573 5572 5568 5563 5560 5560 5560 5560 5561 5563 5564 5563 5563 5563 5563 5562 5561 5560 5559 5559 5559 5560 5560 5561 5563 5564 5565 5565 5565 5566 5568 5570 5571 5570 5568 5566 5566 5566 5566 5566 5567 5567 5565 5564 5564 5563 5562 5560 5559 5557 5555
5570 5565 5567 5567 5557 5553 5560 5561 5560 5562 5559 5554 5556 5563 5566 5562 5558 5557 5558 5558 5555 5548 5545 5543 5536 5535 5545 5551 5549 5549 5552 5554 5555 5558 5559 5557 5553 5550 5548 5548 5549 5549 5550 5551 5551 5552 5552 5551 5552 5551 5551 5551 5550 5548 5548 5547 5546 5546 5548 5550 5550 5550 5551 5553 5556 5558 5560 5561 5560 5559 5559 5558 5558 5558 5558 5557 5557 5555 5554 5554 5553 5552 5550 5548 5547 5545
5563 5558 5557 5557 5547 5544 5551 5551 5548 5549 5542 5536 5544 5554 5556 5553 5550 5547 5546 5547 5547 5543 5535 5531 5529 5529 5531 5532 5532 5536 5539 5542 5544 5544 5540 5540 5542 5541 5539 5538 5537 5537 5538 5539 5539 5540 5540 5540 5541 5541 5542 5543 5541 5539 5539 5537 5535 5535 5537 5538 5538 5538 5540 5542 5546 5548 5550 5551 5550 5550 5550 5548 5547 5548 5548 5547 5546 5544 5544 5544 5543 5541 5540 5538 5536 5535
5554 5551 5549 5548 5540 5534 5540 5543 5539 5533 5526 5525 5538 5545 5542 5542 5541 5537 5535 5538 5539 5534 5527 5522 5520 5517 5516 5517 5520 5524 5528 5532 5534 5528 5524 5527 5531 5532 5530 5527 5526 5527 5527 5527 5527 5527 5528 5528 5529 5531 5532 5532 5531 5530 5529 5527 5525 5525 5526 5527 5527 5528 5530 5533 5535 5537 5539 5540 5540 5539 5538 5537 5536 5536 5537 5536 5535 5534 5533 5533 5532 5530 5529 5528 5526 5526
5541 5541 5538 5537 5531 5524 5529 5535 5523 5512 5515 5524 5531 5533 5531 5530 5530 5526 5526 5529 5525 5518 5517 5516 5509 5503 5504 5507 5510 5512 5516 5522 5522 5515 5514 5517 5517 5518 5520 5518 5517 5516 5515 5515 5515 5515 5516 5516 5518 5520 5521 5521 5520 5519 5519 5518 5515 5514 5515 5517 5517 5517 5520 5522 5524 5526 5527 5528 5528 5527 5525 5525 5524 5524 5524 5523 5523 5523 5522 5522 5521 5519 5519 5518 5517 5516
5528 5528 5524 5523 5521 5516 5518 5519 5506 5499 5510 5518 5518 5518 5519 5518 5519 5517 5516 5515 5509 5504 5505 5503 5496 5493 5495 5496 5498 5499 5503 5509 5509 5503 5504 5505 5503 5505 5508 5507 5507 5506 5505 5504 5504 5504 5505 5506 5506 5508 5509 5509 5509 5508 5508 5507 5506 5505 5505 5506 5505 5506 5507 5510 5512 5514 5515 5515 5515 5513 5512 5511 5511 5511 5511 5511 5512 5512 5511 5511 5510 5509 5509 5508 5507 5507
5516 5513 5511 5509 5508 5508 5506 5503 5496 5495 5501 5505 5505 5506 5506 5507 5510 5509 5504 5500 5495 5490 5490 5488 5485 5484 5484 5484 5485 5485 5488 5495 5497 5493 5492 5492 5491 5492 5494 5494 5495 5495 5494 5494 5494 5494 5495 5495 5495 5496 5496 5497 5497 5496 5497 5497 5496 5496 5496 5496 5495 5495 5495 5496 5499 5500 5501 5502 5501 5500 5499 5498 5498 5499 5499 5500 5500 5501 5501 5500 5500 5500 5500 5499 5498 5498
5505 5501 5500 5497 5495 5497 5496 5491 5489 5489 5487 5489 5494 5495 5494 5495 5497 5497 5494 5487 5478 5473 5473 5474 5475 5474 5473 5472 5471 5471 5473 5477 5481 5482 5481 5480 5479 5480 5481 5481 5482 5482 5482 5482 5482 5483 5484 5483 5484 5484 5484 5485 5485 5484 5485 5485 5485 5485 5486 5485 5485 5485 5484 5485 5486 5487 5488 5490 5489 5488 5488 5487 5488 5488 5489 5490 5490 5490 5490 5490 5490 5490 5490 5489 5489 5488
5495 5492 5491 5486 5483 5486 5486 5479 5478 5480 5476 5475 5481 5484 5485 5484 5482 5484 5483 5474 5465 5462 5462 5462 5463 5461 5460 5459 5458 5459 5460 5459 5462 5466 5467 5466 5467 5467 5467 5468 5469 5470 5470 5470 5470 5472 5473 5473 5474 5474 5473 5473 5474 5474 5474 5474 5473 5474 5474 5474 5474 5474 5474 5475 5475 5476 5477 5478 5478 5478 5477 5477 5477 5478 5479 5480 5480 5480 5480 5480 5480 5480 5480 5479 5479 5479
5483 5481 5480 5476 5472 5475 5475 5468 5467 5470 5466 5462 5465 5470 5473 5472 5470 5471 5467 5459 5458 5458 5454 5451 5451 5448 5447 5447 5447 5447 5446 5445 5447 5452 5452 5452 5454 5455 5454 5455 5457 5457 5458 5458 5458 5459 5461 5463 5463 5464 5464 5463 5463 5464 5463 5462 5463 5462 5462 5464 5464 5463 5463 5464 5465 5466 5467 5467 5467 5467 5466 5466 5467 5468 5469 5469 5469 5469 5469 5470 5470 5470 5470 5469 5469 5469
5468 5467 5466 5463 5461 5463 5462 5456 5456 5457 5454 5451 5452 5456 5459 5461 5461 5457 5448 5443 5448 5450 5445 5442 5441 5437 5436 5437 5437 5436 5434 5432 5434 5438 5439 5439 5440 5442 5442 5442 5443 5445 5446 5447 5446 5447 5449 5451 5452 5453 5454 5453 5452 5452 5452 5451 5452 5451 5452 5453 5453 5452 5453 5454 5455 5455 5456 5456 5457 5456 5455 5455 5455 5456 5458 5458 5458 5459 5459 5459 5460 5460 5459 5459 5458 5459
5453 5451 5450 5450 5449 5449 5447 5443 5441 5441 5442 5443 5442 5442 5447 5451 5449 5443 5434 5431 5434 5436 5433 5431 5428 5424 5424 5425 5426 5425 5424 5422 5422 5424 5426 5425 5426 5428 5429 5430 5431 5432 5433 5434 5434 5434 5435 5438 5440 5441 5442 5442 5440 5440 5440 5440 5441 5441 5442 5443 5442 5441 5443 5444 5444 5445 5446 5446 5446 5445 5444 5444 5444 5444 5445 5446 5447 5448 5448 5448 5448 5448 5448 5448 5448 5449
5442 5437 5436 5439 5437 5433 5430 5429 5426 5425 5430 5434 5432 5431 5436 5436 5431 5428 5425 5422 5421 5422 5422 5420 5415 5410 5409 5411 5413 5412 5410 5410 5409 5409 5410 5412 5412 5414 5416 5417 5417 5418 5419 5420 5420 5420 5420 5424 5428 5430 5430 5431 5429 5428 5428 5428 5429 5430 5431 5432 5431 5430 5431 5433 5433 5434 5435 5435 5435 5435 5434 5434 5435 5434 5433 5434 5435 5436 5436 5436 5436 5437 5437 5438 5438 5439
5431 5427 5425 5425 5423 5418 5414 5414 5414 5414 5418 5423 5422 5420 5422 5421 5415 5412 5410 5409 5408 5408 5409 5408 5404 5400 5396 5397 5399 5398 5397 5398 5398 5396 5397 5398 5399 5400 5402 5404 5404 5404 5405 5406 5407 5407 5407 5409 5413 5416 5418 5418 5417 5416 5417 5416 5416 5418 5420 5420 5419 5419 5420 5421 5421 5422 5423 5423 5423 5423 5424 5424 5425 5425 5424 5424 5424 5424 5425 5425 5426 5426 5427 5427 5428 5428
5420 5420 5415 5409 5407 5406 5402 5402 5407 5407 5406 5410 5411 5408 5406 5405 5401 5396 5392 5393 5394 5394 5392 5391 5391 5390 5387 5384 5384 5384 5384 5385 5385 5385 5386 5386 5387 5389 5390 5392 5393 5392 5391 5392 5393 5394 5394 5395 5398 5401 5403 5405 5404 5403 5405 5405 5404 5406 5408 5408 5408 5409 5409 5409 5409 5410 5411 5411 5411 5412 5412 5414 5415 5415 5415 5414 5413 5413 5414 5415 5416 5417 5417 5418 5418 5419
5409 5410 5404 5397 5395 5395 5392 5395 5400 5396 5393 5397 5399 5396 5392 5388 5386 5384 5380 5379 5379 5378 5376 5375 5374 5374 5374 5371 5369 5369 5369 5369 5370 5372 5373 5373 5373 5375 5376 5378 5381 5382 5382 5382 5381 5381 5381 5383 5386 5387 5389 5393 5393 5390 5391 5392 5393 5394 5396 5396 5395 5396 5397 5397 5397 5398 5399 5400 5400 5401 5402 5403 5404 5404 5404 5403 5403 5403 5404 5405 5406 5406 5407 5408 5409 5409
5401 5398 5390 5387 5387 5384 5382 5388 5391 5385 5383 5386 5385 5383 5380 5375 5372 5372 5370 5367 5366 5364 5363 5362 5359 5358 5358 5356 5354 5353 5353 5354 5354 5355 5358 5358 5357 5359 5360 5361 5364 5367 5369 5370 5369 5368 5368 5370 5373 5374 5375 5379 5381 5379 5377 5379 5380 5382 5383 5382 5381 5381 5383 5384 5384 5385 5386 5387 5389 5390 5391 5392 5393 5393 5394 5393 5393 5393 5394 5394 5396 5396 5397 5399 5400 5400
5391 5386 5379 5378 5378 5373 5371 5377 5380 5376 5374 5376 5372 5370 5368 5364 5360 5360 5358 5355 5354 5352 5350 5349 5347 5345 5344 5343 5341 5338 5337 5339 5338 5337 5339 5341 5341 5341 5343 5344 5345 5348 5350 5353 5353 5354 5354 5355 5357 5359 5360 5364 5369 5367 5364 5365 5367 5367 5367 5367 5366 5367 5368 5370 5371 5372 5373 5374 5376 5378 5380 5381 5381 5382 5382 5381 5382 5382 5383 5384 5385 5386 5387 5389 5390 5390
5378 5374 5371 5369 5365 5362 5362 5367 5368 5364 5362 5364 5363 5360 5357 5354 5351 5349 5347 5345 5342 5339 5338 5337 5335 5333 5331 5329 5327 5324 5322 5324 5325 5322 5321 5323 5325 5326 5326 5327 5328 5329 5332 5335 5337 5337 5338 5339 5339 5340 5343 5348 5353 5353 5350 5350 5351 5352 5352 5352 5353 5353 5354 5356 5357 5358 5360 5362 5363 5366 5367 5369 5370 5371 5370 5369 5369 5370 5371 5372 5373 5375 5377 5378 5379 5380
5365 5363 5365 5361 5353 5351 5355 5357 5357 5351 5347 5350 5353 5351 5347 5345 5342 5339 5337 5335 5332 5328 5325 5324 5323 5321 5319 5316 5314 5311 5309 5309 5310 5308 5306 5307 5309 5310 5311 5311 5311 5312 5315 5318 5319 5320 5321 5321 5320 5321 5325 5331 5335 5335 5334 5334 5336 5337 5338 5338 5338 5339 5340 5341 5342 5344 5347 5350 5351 5353 5355 5356 5357 5358 5358 5358 5358 5358 5358 5360 5361 5363 5364 5365 5367 5368
5358 5356 5357 5353 5346 5345 5347 5348 5347 5341 5335 5336 5340 5339 5336 5333 5331 5329 5327 5324 5321 5318 5314 5311 5310 5309 5307 5305 5303 5299 5296 5295 5295 5293 5291 5291 5293 5293 5294 5295 5295 5296 5299 5301 5302 5302 5302 5301 5301 5303 5307 5313 5317 5318 5318 5319 5320 5323 5324 5323 5322 5323 5324 5325 5327 5330 5335 5338 5340 5341 5342 5342 5344 5346 5346 5347 5348 5347 5347 5348 5349 5350 5351 5352 5354 5355